Theta_e
353 352 353 353 352 351 350 350 349 350 351 350 351 352 352 352 353 354 353 352 353 352 352 352 352 353 355 356 356 356 355 356 356 356 355 355 355 356 356 354 355 356 356 355 356 356 356 356 358 359 358 358 358 358 357 357 357 358 359 359 359 359 359 359 360 359 360 358 355 354 354 353 353 354 355 354 354 352 350 348 345 342 341 341 340
353 352 352 352 352 352 352 351 350 350 352 352 353 353 353 352 352 353 354 353 352 352 352 353 353 353 355 355 355 354 354 354 356 356 356 355 356 357 357 356 355 357 356 355 355 356 355 354 356 357 357 357 357 357 356 357 357 357 358 358 359 359 359 359 360 360 359 359 358 356 355 354 354 354 355 354 353 350 348 348 348 345 339 336 339
353 352 352 353 353 353 353 353 352 352 353 354 354 355 354 354 353 353 354 354 353 352 352 353 353 353 354 354 354 354 354 354 355 356 356 356 356 357 358 357 357 358 358 357 357 357 356 356 356 356 356 357 357 356 356 356 357 357 358 359 358 359 359 359 358 359 359 358 359 357 356 356 356 355 354 353 351 348 346 347 347 346 342 338 340
351 351 351 353 354 354 354 354 354 354 354 355 355 355 355 355 354 354 355 355 354 353 352 353 353 353 353 354 354 354 354 354 354 355 355 355 355 356 356 356 356 357 358 358 358 358 358 357 357 356 356 357 357 357 357 357 357 357 357 359 359 359 360 359 357 358 359 359 359 358 356 355 355 355 354 353 352 349 346 345 343 342 343 343 344
349 349 350 351 353 353 354 355 354 354 354 354 355 354 355 355 355 355 355 355 355 354 352 352 352 353 354 355 355 354 354 354 354 354 355 355 354 356 356 356 355 356 356 357 356 356 357 358 357 356 357 357 357 358 357 357 357 356 357 358 359 358 358 358 357 357 358 359 359 359 357 355 355 354 353 352 353 352 348 345 345 342 341 343 347
348 349 349 351 352 352 353 354 354 354 354 354 354 354 354 354 355 355 355 355 355 354 354 353 352 352 353 354 355 354 353 353 353 353 355 355 355 355 357 357 356 356 356 356 356 356 356 357 356 356 356 357 357 357 357 356 356 357 357 357 357 357 357 357 357 356 357 358 358 359 358 357 357 356 353 350 351 351 349 348 349 347 343 343 344
349 349 350 351 352 352 352 353 352 354 355 354 354 354 354 354 354 355 355 355 355 355 355 354 353 352 353 353 354 353 352 352 351 350 352 353 354 354 356 357 358 357 356 356 357 357 357 357 357 356 356 355 356 357 356 356 356 356 357 356 356 356 356 356 357 357 357 357 357 357 357 357 357 356 353 349 348 350 351 353 353 350 347 345 343
349 349 350 350 351 351 352 352 353 353 354 353 354 354 354 355 354 354 354 355 355 355 355 355 354 353 354 353 352 352 351 351 352 350 350 350 352 354 354 355 357 358 357 357 357 357 357 357 357 357 357 355 354 355 355 356 357 357 357 356 355 356 357 356 357 357 357 356 356 357 357 357 357 357 355 354 354 356 356 354 353 351 350 347 342
351 350 350 350 350 351 351 351 353 353 353 352 353 354 354 354 354 354 353 353 354 354 354 354 353 353 353 352 352 352 352 352 352 351 350 350 351 353 354 353 355 357 357 357 357 356 355 356 356 355 354 352 351 352 352 353 353 355 357 356 355 356 357 357 358 358 358 357 357 358 358 358 358 357 357 357 357 356 354 353 353 352 353 351 344
352 351 350 350 350 351 351 352 352 353 353 353 353 353 353 353 353 352 353 353 353 353 353 353 353 353 353 352 352 352 352 352 351 351 351 351 351 352 352 351 351 353 354 355 356 357 356 356 355 353 351 350 350 350 350 350 350 351 353 353 354 355 357 358 358 358 358 358 358 357 357 356 355 355 355 356 355 354 354 354 355 354 355 356 352
351 350 351 351 351 351 351 352 352 352 352 352 352 352 352 352 353 352 352 352 352 352 352 352 352 352 352 352 352 352 352 351 350 350 351 351 350 350 351 351 351 350 352 354 355 356 357 357 356 354 351 350 350 350 350 350 350 350 350 350 351 352 355 357 358 359 359 358 358 356 356 356 355 355 354 353 354 354 354 354 355 355 356 358 357
349 350 350 350 350 351 351 351 350 351 351 351 351 352 352 352 352 352 352 352 352 352 351 351 351 352 351 351 351 351 351 350 350 350 350 349 349 349 350 353 354 353 353 353 353 353 354 355 355 355 354 351 349 350 350 349 349 349 349 349 349 350 351 353 354 356 358 358 358 358 357 357 357 356 354 352 353 354 354 354 356 357 357 357 356
346 347 349 349 350 350 350 349 349 349 350 350 350 351 351 352 352 352 352 352 351 352 351 351 351 350 350 350 350 350 350 349 349 349 348 347 347 347 348 351 354 355 354 353 352 351 350 351 351 352 351 349 348 349 349 349 349 349 349 349 349 349 349 350 350 351 354 356 358 359 357 356 356 354 349 348 350 353 354 355 356 357 358 357 356
340 342 344 345 347 348 348 348 348 348 348 348 349 349 349 350 351 350 351 351 351 351 351 351 351 350 350 350 349 350 350 349 348 348 346 347 346 346 346 348 351 353 353 352 352 350 348 348 348 348 348 347 347 348 350 352 353 353 352 352 352 351 350 351 351 350 351 352 354 355 353 352 353 350 346 346 349 352 354 354 355 356 355 355 354
335 337 338 340 341 342 344 345 346 347 348 348 348 348 348 349 350 349 349 350 350 350 350 350 351 350 351 351 350 350 351 349 349 349 348 348 348 347 347 347 349 350 349 349 348 348 348 348 347 347 347 347 347 349 351 353 354 354 354 354 354 354 353 352 352 352 353 352 352 353 352 352 353 352 350 351 351 351 351 352 353 352 351 352 352
330 332 334 336 337 339 340 341 342 344 346 347 347 347 347 348 349 349 349 350 350 351 351 352 352 352 352 353 352 353 353 351 350 350 350 349 348 347 347 348 348 349 349 349 348 347 347 347 347 348 348 347 348 349 350 351 352 353 354 355 355 355 355 353 350 349 350 351 351 352 352 351 352 351 350 351 351 349 350 352 353 352 352 354 355
327 327 328 330 333 334 336 338 339 340 341 342 343 343 345 347 349 350 351 351 351 352 352 352 353 353 353 353 353 354 354 353 351 350 350 349 348 347 348 348 349 349 349 349 349 348 348 346 346 348 349 349 350 350 349 349 350 352 354 355 355 355 354 353 351 350 349 350 350 351 351 350 350 350 349 349 349 348 348 350 352 354 355 357 356
327 327 327 328 329 331 332 333 335 336 336 337 337 339 341 343 345 347 348 349 350 351 352 352 352 353 353 353 354 354 354 354 353 352 351 350 350 349 349 349 349 350 350 350 349 349 349 349 348 348 349 350 350 349 347 348 349 351 354 355 355 355 354 353 354 353 352 352 351 351 351 351 351 351 350 349 349 348 347 348 350 352 356 356 354
325 326 327 328 328 329 330 331 332 333 333 333 333 335 336 338 340 342 342 343 345 346 347 349 349 350 351 352 352 353 353 354 353 353 353 352 352 351 351 351 350 351 351 350 350 350 350 350 350 349 349 349 348 348 348 348 348 349 352 353 354 354 355 354 355 354 353 353 353 353 353 353 352 352 352 350 349 347 347 347 348 351 354 354 354
323 324 325 326 327 328 330 331 331 332 333 333 333 333 334 335 337 340 341 341 340 340 341 343 345 347 347 348 349 350 350 350 350 351 352 353 353 353 352 352 352 352 352 351 351 352 352 351 351 351 350 350 350 350 350 350 350 349 350 352 353 354 354 353 352 352 352 353 353 353 353 352 352 352 353 352 351 349 348 347 347 349 352 353 353
321 322 322 323 324 325 327 329 330 330 332 333 334 335 335 336 337 339 341 341 340 340 341 342 343 344 344 345 346 346 347 347 347 347 348 350 352 352 352 352 352 351 352 352 352 352 353 353 353 352 351 351 351 351 351 351 351 351 351 351 352 352 352 351 351 351 351 351 352 352 352 353 353 354 353 353 353 352 351 350 348 349 350 352 353
320 320 320 320 321 322 324 325 327 328 329 331 333 334 336 337 338 340 342 342 342 343 342 340 340 340 340 340 341 342 343 343 342 342 341 343 347 349 350 351 351 351 351 351 352 352 352 352 352 352 351 351 351 351 351 351 351 351 351 351 352 352 351 351 351 350 350 351 352 352 353 353 354 354 354 354 353 353 352 352 352 352 352 352 353
319 320 319 319 318 319 320 322 324 325 326 328 329 330 331 332 335 338 340 340 340 339 337 336 336 337 339 338 337 339 340 338 336 335 335 336 340 343 345 346 347 347 347 346 347 349 350 350 351 350 349 350 350 350 350 351 351 351 351 351 351 351 352 351 350 349 349 351 351 352 352 353 354 354 353 353 353 353 353 353 353 354 354 353 353
318 320 320 319 318 317 317 318 319 321 323 325 326 327 327 327 328 330 332 332 332 331 330 331 332 334 337 338 339 340 340 337 335 333 332 332 334 336 338 340 340 339 338 337 337 339 341 344 347 349 350 349 349 349 350 350 349 348 348 346 346 346 348 349 349 348 349 350 350 351 352 352 353 353 353 353 353 353 353 354 354 353 354 354 353
319 320 321 321 320 319 317 316 316 317 318 320 322 323 324 325 325 326 326 326 326 326 327 328 330 331 333 335 338 339 337 334 332 331 331 331 332 333 334 335 336 335 335 334 333 332 333 334 337 341 344 344 344 343 343 342 342 341 340 339 339 340 343 346 348 348 349 349 350 351 352 352 352 352 352 352 352 352 352 353 353 353 353 353 353
319 319 320 320 321 321 320 318 317 316 316 317 318 318 319 321 322 323 323 324 324 325 325 326 328 330 331 332 334 333 330 327 327 327 328 329 330 332 333 334 334 335 334 334 333 332 332 332 333 335 336 337 337 337 337 337 337 337 338 339 340 341 343 345 346 347 347 348 349 350 350 350 350 349 349 350 350 351 352 352 352 353 353 353 353
319 320 320 320 320 321 320 319 318 318 317 317 317 317 317 318 319 320 322 322 323 324 325 326 327 329 330 330 332 330 327 325 326 326 326 327 327 329 331 333 334 335 335 334 334 334 335 336 337 337 338 338 339 339 339 339 340 341 341 341 342 343 343 344 345 345 346 346 347 347 348 348 348 348 348 348 349 349 350 350 351 351 351 351 351
319 319 320 320 320 320 320 319 319 319 318 318 318 318 318 318 319 319 320 320 321 322 323 325 326 327 328 329 330 330 329 327 325 325 325 325 326 326 327 330 332 333 334 335 336 336 337 338 338 339 339 339 339 340 340 340 340 341 342 342 343 343 344 344 345 345 346 346 346 347 347 347 348 348 348 348 348 349 349 349 350 350 350 350 350
319 319 319 319 319 319 319 319 318 318 318 318 318 318 317 316 318 319 318 318 318 319 320 322 323 323 325 327 329 330 329 327 324 323 323 324 325 325 326 328 329 331 334 335 335 336 337 338 338 338 338 338 339 339 339 339 339 340 340 341 342 343 343 343 342 342 343 343 344 345 346 346 347 347 347 348 348 348 349 348 349 349 350 350 351
318 317 317 318 318 318 318 318 318 318 318 318 318 318 316 315 315 317 317 317 317 317 319 320 321 322 323 325 326 326 326 324 323 323 323 323 324 325 326 327 328 331 333 335 335 335 336 336 336 336 335 335 335 334 335 336 337 337 337 338 339 340 339 339 339 338 338 338 338 340 342 344 344 344 345 346 346 347 348 348 348 348 349 350 350
316 316 316 316 316 317 317 317 317 317 317 318 318 318 318 317 315 315 315 316 316 317 318 319 320 321 322 323 324 323 323 322 322 323 323 323 324 327 329 329 330 331 333 333 334 334 334 334 333 331 330 329 329 328 329 330 331 332 332 333 335 336 336 335 333 333 335 335 335 336 338 339 339 339 340 342 342 343 345 346 347 348 349 349 349
315 315 315 315 315 315 315 316 316 316 316 317 317 318 319 319 319 317 316 315 315 316 317 318 318 319 320 321 322 322 322 323 323 323 323 323 324 329 332 332 332 332 332 332 333 333 332 331 330 328 326 326 325 324 325 325 326 326 328 329 331 332 332 330 328 329 332 332 332 333 335 335 335 336 337 338 338 339 341 343 344 346 347 347 348
313 314 313 313 313 314 314 314 314 315 315 315 316 317 317 318 319 319 318 318 317 316 316 316 317 318 319 319 320 321 321 322 322 323 323 322 324 328 332 332 332 331 330 330 332 332 329 328 326 325 325 324 324 323 323 323 323 324 325 326 327 327 326 325 325 326 328 328 329 331 332 332 332 333 334 335 335 336 337 339 340 341 342 343 343
312 312 312 312 312 312 313 313 313 313 314 314 314 315 316 316 317 318 319 319 319 318 318 317 316 316 317 318 318 319 320 321 322 322 323 322 324 328 331 330 330 330 328 328 329 329 327 325 324 324 323 323 322 322 322 321 321 322 322 323 323 323 322 322 323 323 324 324 326 328 329 329 330 331 331 331 332 333 334 335 337 338 338 339 340
310 310 310 310 311 311 311 311 312 312 312 313 313 314 314 315 316 317 318 318 318 318 319 319 317 316 316 316 316 316 318 319 320 321 322 323 324 327 329 329 329 329 327 326 326 326 325 324 324 323 322 322 321 321 321 320 320 320 321 321 320 320 320 320 320 320 320 321 323 324 325 326 327 327 327 327 328 329 330 331 333 333 334 335 335
309 309 309 309 310 310 310 310 310 310 311 311 312 312 313 314 316 317 316 316 316 316 317 318 317 317 317 316 315 315 316 317 318 320 321 322 324 327 328 328 329 328 327 327 326 325 324 323 322 322 321 321 321 320 320 319 319 319 319 319 318 318 319 318 318 318 318 319 320 320 321 322 322 322 323 324 324 325 325 326 327 327 328 327 327
309 309 309 309 309 309 309 309 309 309 310 310 311 312 312 313 315 315 314 313 313 315 316 316 317 317 318 317 316 315 315 314 316 318 319 320 323 326 327 327 327 326 326 326 325 324 323 322 321 321 320 320 320 319 319 318 318 318 318 317 317 317 317 316 316 316 317 317 318 318 318 318 318 318 319 320 320 320 320 320 321 321 321 321 322
307 307 307 308 308 308 308 308 308 309 309 310 310 311 311 312 312 312 311 311 312 313 314 314 315 316 316 316 315 315 314 314 316 318 319 320 322 324 325 326 326 325 325 325 324 324 323 321 320 320 319 319 318 318 317 317 317 317 316 316 316 316 315 315 316 316 316 316 316 316 316 316 316 316 316 317 317 317 317 318 318 318 319 319 320
306 305 305 305 306 306 306 307 308 308 308 309 310 309 310 310 309 309 309 311 311 312 312 312 313 313 314 314 314 313 314 314 316 317 318 320 321 323 324 324 324 324 324 324 324 323 321 320 319 318 317 317 316 316 315 315 315 315 315 315 315 315 315 315 315 315 315 315 315 315 315 315 314 314 314 315 315 315 315 316 316 317 317 318 319
305 305 305 304 304 305 305 306 306 307 307 308 308 308 308 308 308 308 309 310 310 311 311 311 312 312 312 312 312 311 312 313 314 315 316 318 319 321 322 323 324 324 324 324 323 321 319 318 317 316 316 315 314 314 314 314 313 313 313 313 314 314 314 314 314 314 314 314 313 313 314 313 313 313 313 313 313 313 313 314 315 315 316 317 317
304 304 304 303 303 303 304 305 305 305 306 306 306 307 307 307 308 309 310 310 310 310 310 310 310 310 310 311 310 309 310 312 313 314 315 317 318 319 320 321 322 323 323 322 320 318 317 316 315 314 313 313 312 312 312 312 312 312 312 312 312 312 312 313 313 312 312 312 312 312 312 312 312 312 312 311 311 311 312 312 313 314 315 315 316
304 304 304 303 303 303 304 305 305 305 305 306 306 307 308 308 309 309 309 308 308 308 308 308 309 309 310 310 309 309 310 312 313 313 314 315 316 317 318 319 320 320 319 318 317 315 314 313 312 311 310 310 310 310 310 310 310 311 311 311 311 311 311 311 311 311 311 311 311 311 310 310 310 310 311 311 311 311 311 311 312 312 313 314 315
303 303 303 302 303 304 304 305 305 305 306 307 307 307 308 308 308 307 307 306 306 307 307 307 308 309 309 309 308 308 310 311 312 312 313 314 315 316 316 315 315 315 314 313 313 311 311 310 309 309 308 308 307 307 307 308 308 308 309 309 309 309 309 309 309 309 309 309 309 309 308 309 309 310 310 310 310 311 311 311 311 311 311 312 313
302 302 302 302 303 304 304 304 305 305 305 305 305 305 305 305 305 305 305 305 305 305 306 306 307 307 307 307 307 308 309 310 310 311 311 312 312 312 311 311 311 310 310 310 309 309 308 308 307 307 307 306 306 305 305 306 306 306 307 307 307 307 308 308 307 307 307 306 307 307 307 307 308 308 309 309 310 310 311 311 311 311 311 311 312
301 301 302 302 303 303 303 303 303 303 303 303 302 302 302 302 303 303 303 304 304 304 304 304 304 305 305 306 306 307 307 308 309 309 309 309 309 308 308 308 308 308 307 307 307 306 306 306 305 305 305 305 304 304 304 304 304 304 305 305 305 305 306 305 305 304 304 304 305 305 305 306 306 306 307 307 308 309 309 310 310 311 311 311 311
300 301 301 301 301 301 301 302 302 302 301 301 300 300 300 301 301 302 302 302 302 302 302 301 302 302 303 304 304 305 305 306 307 307 307 307 306 306 305 305 305 305 305 305 305 304 304 304 304 304 303 303 303 302 302 302 302 302 302 303 303 303 303 303 302 302 302 302 303 303 303 303 304 304 305 305 306 307 308 308 308 309 310 310 311
299 300 300 300 300 300 300 300 300 300 299 299 298 299 299 300 300 300 300 300 300 299 299 300 300 301 302 302 303 303 304 305 305 306 306 306 305 305 304 304 304 304 303 303 303 302 302 302 302 302 301 301 301 301 301 301 301 301 301 301 301 302 302 301 300 300 300 300 301 301 301 302 302 303 304 304 305 306 307 307 308 309 309 309 310
298 298 298 298 298 298 298 298 297 297 297 297 297 298 298 298 298 298 297 297 297 297 298 299 299 300 300 300 301 302 302 303 304 305 305 305 304 304 303 303 303 302 302 301 301 301 300 300 300 300 300 300 300 300 300 300 300 300 300 300 300 300 300 299 298 297 297 298 298 299 299 300 301 302 303 303 304 306 306 307 307 307 307 308 309
297 297 297 297 296 296 296 296 296 296 296 296 296 296 297 296 296 296 296 296 296 297 297 298 298 299 299 299 299 300 300 301 302 303 303 304 303 303 303 302 302 302 301 301 301 300 300 300 300 300 300 299 299 299 299 299 299 299 299 299 299 298 298 297 296 296 296 297 297 297 298 299 300 301 301 302 303 304 305 305 305 305 306 307 308
296 296 296 295 295 295 295 295 295 295 295 295 295 295 295 295 294 294 295 295 295 296 296 297 297 297 297 297 298 298 299 299 300 301 301 302 302 301 301 301 301 301 301 301 301 300 300 300 299 299 298 298 298 298 297 297 297 297 297 297 297 297 296 296 296 296 296 296 296 296 297 298 299 299 300 301 302 303 303 304 304 305 306 307 308
296 295 295 295 295 294 294 294 294 294 294 294 294 294 294 293 293 293 294 294 294 295 295 296 296 296 296 296 296 297 297 298 298 299 299 299 299 299 299 299 299 299 299 300 300 299 299 299 298 298 297 297 297 297 297 297 296 296 296 296 296 296 296 296 296 297 297 296 296 296 297 297 298 299 300 300 301 302 302 303 304 304 305 306 307
Wind_Speed
23 25 25 24 26 27 26 25 26 26 24 21 18 16 16 15 14 13 12 12 11 10 9 9 9 9 8 8 8 7 7 7 7 8 9 9 9 8 8 8 8 8 7 7 7 7 8 8 8 8 8 8 8 7 7 7 7 7 7 7 7 7 6 6 8 9 8 8 8 9 9 9 9 9 10 10 10 11 12 12 12 12 12 11 11
21 24 24 24 25 24 23 23 24 25 23 20 19 17 16 16 15 13 12 12 11 10 10 9 9 8 9 9 8 8 8 7 8 9 10 11 10 9 9 9 9 9 9 9 8 8 8 9 9 9 9 9 9 9 9 8 8 8 8 8 8 8 7 8 8 9 10 9 9 9 9 10 10 10 10 11 12 14 14 13 12 12 12 11 11
17 20 21 21 21 20 19 19 21 22 21 19 18 16 15 15 16 15 12 10 11 11 10 10 10 9 9 9 9 9 9 9 9 10 10 11 11 10 9 10 10 9 9 9 8 8 8 9 9 9 8 9 9 9 9 9 9 9 9 9 9 9 8 8 9 10 11 11 10 10 10 10 11 12 13 14 15 15 15 14 13 12 12 12 11
16 18 19 18 17 16 17 17 17 18 18 18 17 16 14 14 15 15 12 10 10 11 11 11 10 10 10 10 9 9 9 9 10 11 11 11 11 11 10 10 10 10 9 9 8 8 8 9 9 9 9 9 10 9 9 9 9 10 10 10 10 10 9 9 10 10 10 11 11 11 12 12 13 14 14 15 15 15 15 15 15 13 13 13 12
17 17 18 18 17 16 15 15 15 17 18 17 17 16 14 13 14 15 13 12 11 11 11 11 11 11 10 10 10 10 10 10 10 11 11 11 11 11 11 12 12 11 11 11 10 9 9 9 9 9 9 10 10 10 9 9 9 10 11 10 10 11 10 11 11 11 11 11 12 12 13 14 14 15 15 14 13 14 17 18 17 15 16 16 13
18 16 16 16 17 18 17 16 16 17 17 17 16 15 15 14 14 14 14 13 12 11 11 11 11 11 10 10 10 10 11 11 12 12 12 12 13 13 12 13 13 13 13 13 12 12 11 11 10 10 10 10 10 10 10 10 10 10 10 11 11 11 12 12 12 12 12 12 13 13 13 13 13 14 15 16 15 16 18 18 17 17 19 20 19
16 16 16 16 16 17 17 18 19 18 17 17 16 15 15 14 13 13 13 13 13 12 11 11 12 12 12 11 11 11 12 12 13 13 13 14 14 14 14 14 14 15 15 15 13 13 12 12 12 11 11 12 11 11 11 11 11 11 11 12 11 11 12 12 12 13 13 13 13 13 13 13 13 13 16 18 18 16 15 15 16 18 21 23 23
17 18 19 18 19 18 17 17 18 19 19 20 18 16 14 13 13 13 13 14 13 13 12 12 12 12 12 13 13 13 13 13 14 14 15 15 15 15 16 16 15 15 16 16 15 14 14 13 13 12 13 14 13 13 12 12 12 12 12 12 13 13 12 12 13 13 13 14 13 12 12 13 13 14 14 15 14 12 11 11 14 19 21 22 24
17 19 19 20 21 21 21 20 19 20 21 21 20 18 16 14 14 15 15 14 13 13 13 12 12 12 12 13 14 13 13 13 14 14 14 15 15 15 16 17 16 16 17 17 17 17 17 15 14 14 14 15 15 15 15 15 15 15 14 14 15 14 13 13 13 13 12 13 12 11 11 12 12 12 12 12 11 12 14 13 14 17 18 19 23
16 18 19 19 21 22 22 21 20 20 20 20 20 19 17 16 16 16 16 16 15 16 15 14 13 12 12 13 13 12 12 13 14 14 13 14 15 16 17 18 18 18 18 19 18 18 18 17 17 18 18 17 16 16 16 16 16 16 16 16 16 15 14 14 13 13 12 12 12 11 11 12 13 13 13 14 13 12 13 13 13 16 16 15 19
15 16 15 15 17 21 22 21 21 20 17 16 16 16 15 15 16 16 17 17 17 18 17 17 16 13 12 12 12 12 12 13 15 14 13 14 15 16 18 18 18 19 19 20 19 19 18 17 18 19 20 20 18 18 18 17 17 17 17 17 17 17 16 16 15 14 13 13 13 13 13 14 15 15 15 15 14 13 14 14 13 14 13 12 13
13 13 13 14 14 17 19 20 20 18 14 14 16 17 16 15 16 17 17 17 17 17 17 18 17 15 14 13 12 12 12 14 15 15 14 14 14 16 17 16 16 17 18 19 19 19 19 18 17 16 18 20 20 19 19 19 17 17 17 17 17 18 18 18 18 17 16 16 15 15 15 16 16 17 17 17 16 17 18 17 14 13 13 12 13
6 5 8 12 14 15 16 17 18 18 16 16 20 21 19 18 18 18 18 17 17 17 17 17 17 16 14 14 14 12 12 14 15 15 15 14 13 15 17 17 16 16 17 18 19 20 20 20 20 19 20 22 22 21 20 20 19 18 18 18 19 18 18 18 19 20 20 19 18 18 19 19 19 20 22 22 22 21 19 18 16 14 14 13 14
15 12 9 6 7 11 13 14 16 18 17 15 17 18 19 19 19 19 18 16 15 17 18 17 17 17 16 16 16 14 14 16 16 15 15 15 14 15 16 17 18 17 18 19 19 20 21 21 22 22 22 23 23 22 21 19 18 18 18 19 19 19 19 19 18 19 20 21 21 22 24 25 25 26 27 26 26 24 21 20 18 16 17 17 19
22 20 18 15 11 7 6 6 8 12 15 15 14 13 15 16 16 15 15 13 11 13 14 13 14 16 16 16 16 15 15 16 17 16 17 17 16 15 15 16 17 18 19 20 20 21 21 22 22 23 23 24 24 23 21 17 16 17 18 18 18 18 19 19 18 17 17 19 21 22 23 23 23 25 24 23 24 26 25 24 22 21 23 23 22
25 24 22 20 17 14 10 8 7 8 12 16 15 12 10 11 11 11 11 9 8 8 8 8 9 10 11 12 13 12 12 15 17 16 17 17 16 16 15 15 15 16 18 18 19 20 21 22 23 22 22 23 23 22 20 18 17 17 18 18 17 16 17 20 22 22 20 19 20 21 21 22 22 22 22 21 22 25 25 23 21 21 21 18 16
23 22 21 20 17 15 13 11 10 10 12 15 16 13 11 10 10 10 9 8 7 6 6 7 7 7 7 8 10 10 9 12 14 15 16 16 16 15 16 15 15 16 16 16 16 17 18 19 20 20 20 20 20 19 19 19 18 17 17 17 17 16 18 20 21 22 23 23 24 25 25 25 25 24 23 22 21 22 24 23 19 17 16 13 14
20 19 19 18 16 15 13 11 9 9 9 11 12 13 13 12 11 10 10 9 8 6 6 6 5 4 4 5 7 8 8 10 11 12 13 15 15 15 15 15 15 15 14 14 15 15 14 15 15 16 17 17 17 17 17 17 17 16 15 16 16 17 20 20 16 16 20 24 27 28 28 28 27 26 26 24 21 20 23 25 22 17 14 14 15
19 18 18 16 15 15 14 12 10 9 8 8 7 8 9 10 11 10 8 8 7 6 6 6 5 4 4 3 2 4 6 8 8 9 11 12 13 14 14 13 13 12 10 10 12 12 13 13 13 13 13 13 14 14 13 14 15 14 13 13 15 17 18 17 14 14 17 19 21 23 24 26 28 28 29 28 25 22 23 26 24 18 16 16 16
18 18 18 17 16 16 15 14 14 12 11 10 8 6 7 8 9 9 9 7 6 5 5 6 5 4 4 4 3 2 0 2 4 5 7 10 11 11 10 9 9 9 9 8 8 9 9 9 10 11 10 10 11 11 11 12 13 14 13 13 14 16 16 16 17 19 20 21 22 23 23 25 27 27 27 27 26 24 23 24 24 20 18 18 17
17 17 17 17 17 17 16 15 15 14 13 13 12 9 7 7 7 8 9 9 9 9 10 9 9 8 7 5 4 4 3 3 5 7 8 8 9 10 9 7 7 8 8 8 9 10 9 7 8 10 11 11 11 12 13 13 14 15 16 16 16 18 19 21 23 24 23 23 23 22 21 22 22 20 19 18 18 17 18 19 21 20 19 18 18
15 16 16 17 17 17 16 15 15 15 14 15 15 13 11 10 9 10 11 12 13 14 14 13 12 11 9 7 5 4 4 5 4 5 6 6 5 5 5 5 6 6 6 6 7 8 9 7 7 11 13 13 13 13 13 14 15 16 17 18 19 20 21 23 23 22 20 19 19 19 18 18 18 17 16 15 15 15 15 16 17 17 18 18 18
14 15 15 16 16 16 15 14 14 14 14 14 16 16 15 15 14 14 15 15 15 14 14 14 14 12 10 9 8 7 6 7 5 5 4 4 3 3 2 1 1 1 1 2 3 5 5 6 8 11 12 11 11 11 11 12 13 14 15 16 17 18 19 20 18 16 15 15 16 18 18 17 17 17 17 16 16 16 15 15 15 16 17 19 19
14 14 13 14 15 14 14 14 13 13 12 12 13 14 15 15 16 16 16 16 15 15 14 14 15 13 11 10 9 8 6 5 5 6 5 3 3 4 4 3 2 2 2 3 5 6 6 7 8 10 10 9 9 10 11 12 14 15 16 17 17 18 18 17 14 12 12 13 14 16 17 16 16 17 17 17 17 16 16 15 16 16 17 18 19
12 12 12 12 11 11 13 13 13 13 12 11 12 13 13 13 14 14 14 14 14 14 14 14 14 14 12 10 8 6 6 5 5 7 6 5 5 6 5 5 5 4 4 4 5 7 8 9 10 10 10 11 11 12 13 14 15 16 16 16 16 16 15 13 12 11 12 12 13 15 16 15 14 15 16 17 17 17 17 16 16 16 16 17 18
11 11 11 10 10 9 10 11 11 12 12 12 12 12 12 12 12 12 13 13 13 13 12 12 12 11 11 9 8 6 6 6 7 7 7 7 7 8 7 6 5 4 5 5 6 6 8 9 10 11 11 11 12 11 11 11 11 11 10 10 10 10 10 11 12 13 13 13 13 15 15 14 13 13 13 14 14 15 15 15 16 15 14 16 17
10 10 9 9 9 9 9 9 9 10 11 11 11 11 11 11 11 11 11 10 10 10 10 10 9 8 7 7 6 6 7 7 8 8 8 8 9 9 9 8 6 5 5 6 7 7 7 7 8 8 8 8 8 7 7 7 7 7 7 7 7 8 9 10 11 12 13 13 14 14 14 13 12 12 11 11 12 14 13 14 15 15 14 15 16
9 10 9 9 9 9 9 9 8 8 9 9 10 10 10 9 9 9 9 8 8 7 7 7 7 6 6 5 4 5 6 7 8 8 9 10 10 11 10 10 8 7 6 7 7 7 6 5 4 5 6 6 6 6 5 5 6 6 6 6 6 7 8 10 10 10 10 12 13 14 13 13 12 12 12 12 12 12 12 12 14 15 14 15 16
9 8 8 8 9 8 8 9 8 8 8 8 8 9 9 9 8 7 7 7 6 5 5 5 5 5 5 4 3 3 4 5 6 7 8 9 10 10 10 9 9 8 6 6 6 5 4 4 4 5 6 6 6 6 6 6 6 6 6 6 6 6 7 8 10 11 12 12 13 13 13 13 13 12 13 13 13 12 12 13 14 15 14 14 16
7 7 7 7 7 7 7 7 7 8 7 7 7 7 8 8 8 7 6 6 5 4 4 4 4 4 4 3 2 2 2 3 4 5 6 8 9 9 9 9 8 7 5 4 4 4 3 3 4 5 6 6 6 7 7 8 8 8 8 8 8 7 7 6 8 10 11 12 13 13 12 11 12 12 12 13 13 13 13 14 15 14 14 14 16
6 6 6 6 6 6 5 5 6 6 6 6 6 6 7 7 7 6 6 6 5 4 4 4 5 5 4 3 3 3 2 3 4 5 6 7 7 8 7 7 7 5 3 1 2 3 3 3 4 5 6 7 7 8 9 9 9 9 9 9 8 8 8 9 11 11 11 11 12 13 11 11 11 12 12 12 13 13 12 13 13 13 13 14 16
6 5 5 5 5 5 5 5 5 5 6 6 6 6 6 6 6 6 7 7 6 4 4 4 5 5 5 4 4 4 3 3 4 5 6 6 6 7 6 5 4 3 0 1 2 2 3 4 5 6 7 7 8 9 9 9 10 9 9 9 9 8 9 12 13 12 11 10 11 11 11 11 11 12 12 12 12 13 12 13 13 12 12 13 15
6 5 4 4 4 4 4 4 5 5 5 6 5 6 6 6 6 7 8 8 7 5 5 5 4 5 6 6 6 5 5 5 5 6 6 6 6 6 6 3 1 1 1 2 2 2 3 4 5 6 6 7 8 8 8 9 9 9 8 8 8 9 10 11 12 11 11 11 12 11 10 11 11 12 12 12 12 12 12 13 13 13 13 14 14
6 5 4 3 3 3 3 4 5 5 5 5 5 5 5 6 6 7 7 8 8 7 6 6 5 5 5 6 7 7 7 7 6 6 6 6 5 4 4 2 1 1 1 3 3 2 2 3 3 4 5 5 6 7 7 7 8 8 8 7 8 9 10 10 10 10 11 12 11 11 11 11 11 12 12 13 13 13 13 13 13 14 13 14 15
5 4 4 3 3 3 4 4 5 5 5 5 5 5 5 5 6 6 6 7 8 8 8 8 7 7 7 8 9 8 8 8 8 7 7 6 5 4 3 2 2 2 1 2 2 2 1 1 2 2 3 4 5 5 6 6 7 7 7 7 8 9 9 10 10 11 12 12 11 11 11 12 11 11 12 13 13 13 13 13 13 13 14 14 15
3 3 3 3 3 4 4 5 5 5 6 6 5 5 5 5 5 5 5 6 8 8 8 8 9 9 8 9 11 11 10 9 8 7 6 6 4 3 3 5 5 4 3 2 2 1 1 1 1 2 2 3 4 4 5 6 6 7 7 8 9 9 9 10 11 11 12 11 11 11 11 11 11 11 12 12 12 12 12 13 13 13 13 14 15
2 3 3 4 5 5 5 5 5 5 5 5 5 5 5 4 4 5 5 6 7 8 8 8 9 9 9 10 13 14 13 11 10 8 7 6 5 3 4 6 8 7 6 6 4 3 2 1 1 2 2 3 3 4 5 5 6 6 7 8 8 8 9 10 10 11 12 12 11 12 12 11 11 11 12 12 12 12 12 13 13 13 14 14 15
2 3 3 4 5 5 5 5 5 5 4 4 4 4 4 4 4 5 5 6 7 7 7 8 8 8 9 11 13 16 16 14 11 9 8 8 7 5 6 8 9 9 9 9 7 6 4 2 1 1 2 3 4 5 5 6 6 7 8 8 8 8 9 10 9 10 11 11 11 11 12 12 12 12 12 13 13 13 13 13 14 15 15 15 14
2 4 4 4 4 5 6 5 5 5 4 4 4 4 4 4 5 5 5 6 6 7 7 8 7 8 8 10 13 15 15 13 11 10 10 10 8 8 8 10 11 11 11 10 8 6 4 3 1 1 2 3 4 5 6 6 7 7 8 8 8 8 9 9 9 10 10 11 12 12 13 13 14 14 14 14 14 15 15 15 15 15 16 16 15
3 5 5 5 6 6 6 5 5 4 4 4 5 5 5 5 5 5 5 6 6 7 7 8 8 8 8 9 12 14 13 12 11 11 11 11 10 10 10 10 12 13 12 10 7 6 4 2 1 1 2 3 4 5 6 7 7 7 7 8 8 9 9 9 9 10 11 12 13 13 13 14 14 14 14 15 15 15 16 16 16 16 16 17 17
5 5 5 6 6 6 5 4 3 3 3 3 4 4 4 4 4 5 5 5 6 7 7 8 8 9 9 11 12 12 11 10 11 11 11 11 11 11 10 11 12 12 11 7 5 4 3 2 1 2 3 4 5 6 7 7 7 7 7 8 8 9 10 10 10 11 12 13 13 13 13 13 14 14 15 16 16 16 17 17 17 17 17 18 18
5 6 6 6 5 4 3 2 2 2 2 2 2 3 3 4 4 4 5 5 6 7 8 9 9 10 10 11 11 11 10 10 10 10 11 11 11 11 11 11 10 8 6 5 6 5 4 2 3 4 5 6 7 7 7 7 7 7 7 8 9 9 10 11 11 11 12 13 13 13 13 14 15 15 15 15 16 17 17 18 18 19 19 18 18
5 5 5 4 3 2 2 2 2 2 2 3 3 3 3 4 4 4 5 5 6 7 8 8 9 10 10 10 11 11 11 10 10 10 10 10 9 9 9 7 5 3 2 4 4 3 3 4 5 6 7 8 9 9 8 7 7 8 8 8 9 10 11 11 11 12 12 13 14 15 15 15 15 15 15 15 15 16 17 18 19 20 20 19 20
5 4 4 3 2 2 2 2 2 2 3 3 3 4 4 4 4 5 5 6 6 7 7 8 9 10 10 9 9 10 10 10 10 10 10 9 8 8 8 7 5 4 4 4 4 4 5 6 7 8 9 10 10 10 8 7 7 8 9 10 10 10 11 11 11 12 13 14 16 16 16 16 16 16 16 15 15 16 17 17 18 20 21 21 22
3 3 2 1 1 1 1 2 2 2 2 3 3 4 4 4 4 4 5 5 6 6 7 8 9 10 9 9 9 9 9 9 10 9 9 8 8 8 9 9 8 8 7 7 7 8 8 9 9 10 11 12 12 11 10 9 8 9 9 11 11 12 12 12 12 13 14 15 16 16 17 17 17 17 17 17 17 17 18 18 19 20 21 21 22
1 1 1 1 1 1 1 2 2 2 3 3 3 3 4 3 4 4 4 5 5 6 7 7 8 9 8 8 8 9 10 10 10 10 9 9 8 8 9 9 10 9 9 9 9 9 9 10 10 11 11 11 12 12 13 13 13 13 13 13 14 13 12 12 13 14 15 15 16 17 19 19 19 18 18 18 18 20 21 21 21 22 23 22 23
1 1 0 1 1 1 1 2 2 2 3 3 3 3 3 3 4 4 5 5 6 6 7 7 7 7 7 8 8 9 10 10 10 10 11 10 9 8 7 8 8 8 9 10 11 11 11 11 11 11 11 12 13 14 14 15 16 17 16 15 14 14 14 15 18 19 18 17 17 18 20 21 21 20 19 19 19 20 22 24 24 24 23 23 25
2 2 1 2 2 2 2 2 2 3 3 3 3 3 3 4 4 5 5 6 6 6 6 6 7 7 7 8 9 10 11 12 11 11 11 11 10 9 8 8 7 7 7 9 10 10 10 9 9 9 10 11 11 12 12 13 15 17 16 14 14 17 20 22 23 22 20 19 18 18 19 21 21 21 21 20 20 21 24 25 25 24 23 23 24
3 2 3 3 3 2 2 2 2 2 2 2 3 3 3 4 4 5 5 6 6 6 6 6 6 7 7 8 9 10 11 11 11 11 10 10 9 9 9 9 9 9 9 9 9 9 9 9 8 9 9 10 11 12 12 13 15 16 17 16 18 22 24 24 22 21 21 21 19 18 18 20 22 22 22 22 22 24 26 26 26 25 24 24 25
3 3 3 3 3 3 3 2 2 2 3 3 3 3 4 4 4 4 5 6 6 6 6 6 7 7 8 8 9 9 10 10 11 11 11 9 9 9 10 10 10 10 10 10 9 10 10 10 10 10 12 13 14 15 16 16 16 16 17 19 21 23 23 21 21 21 21 21 21 20 20 21 22 22 22 23 23 24 27 27 27 26 25 25 25
3 3 3 3 3 3 3 3 3 3 3 3 3 3 4 4 4 5 5 5 6 6 6 7 7 8 8 8 9 9 9 10 11 12 11 10 10 10 10 10 10 10 9 9 9 9 9 9 10 11 12 13 14 15 16 15 15 16 18 20 20 20 20 20 21 22 22 23 24 25 24 23 23 23 23 23 24 25 27 27 27 26 26 26 25
Wind_Direction
204 208 209 211 217 222 225 226 225 225 226 228 228 229 232 234 233 231 230 230 231 233 231 226 226 225 225 227 229 238 251 255 256 256 255 259 264 265 266 271 269 265 264 265 266 270 274 274 273 274 274 274 275 274 271 265 258 255 254 256 258 255 251 255 270 283 286 289 300 304 308 311 310 313 319 319 321 326 332 337 339 341 340 338 340
208 210 211 213 217 219 222 224 226 225 224 226 227 227 232 236 237 236 234 234 235 234 229 226 229 229 229 232 234 239 250 258 261 264 265 268 270 266 265 269 270 266 266 269 267 268 273 274 273 273 274 275 277 277 274 271 267 262 259 259 264 265 261 264 275 286 290 293 299 304 310 314 312 312 317 319 321 326 331 336 338 338 342 346 345
212 214 214 215 217 216 217 220 225 225 223 224 224 224 228 234 238 236 232 232 236 235 232 231 235 236 236 240 242 244 249 255 261 268 272 275 273 267 263 267 268 264 264 267 266 265 269 271 272 272 272 274 277 278 277 275 272 271 267 264 267 270 268 269 275 281 288 294 296 300 306 309 308 311 315 318 321 326 331 335 337 337 341 348 348
218 220 220 220 218 215 216 218 220 222 222 224 225 224 224 228 234 234 227 224 230 235 236 238 243 246 246 248 251 253 255 257 262 267 272 276 276 271 268 271 271 266 264 266 266 266 267 270 273 272 273 276 279 280 279 277 276 274 273 270 269 271 271 272 276 279 284 290 293 298 305 308 308 311 315 319 322 325 330 335 338 338 341 343 339
221 223 224 224 222 221 221 219 218 220 223 226 227 226 226 226 231 231 226 222 224 230 237 241 246 251 252 252 255 259 263 266 269 270 271 274 276 272 270 272 274 273 271 272 271 271 268 268 271 273 273 276 279 281 282 284 285 281 278 278 277 279 279 279 282 284 283 287 292 297 303 307 309 312 316 319 320 322 327 332 333 334 338 339 333
219 222 226 224 225 229 226 222 224 224 226 229 229 227 227 226 229 230 227 225 225 226 230 237 244 252 258 260 260 264 267 271 274 275 273 273 276 275 271 271 274 276 276 275 273 271 269 267 270 271 271 274 277 280 284 289 290 286 284 285 285 286 286 286 290 292 290 289 292 296 301 304 305 308 315 320 319 318 321 326 327 327 331 334 332
222 226 230 226 228 233 232 233 236 232 230 232 230 229 230 230 229 227 226 228 229 226 226 232 241 249 256 262 265 270 273 274 276 278 278 276 277 278 275 272 272 274 276 276 273 270 267 267 269 269 269 272 274 276 281 285 286 286 287 290 291 291 289 289 292 294 293 293 294 296 298 301 302 304 312 320 321 320 319 321 321 322 325 328 329
222 226 227 227 231 232 233 239 241 237 236 238 237 234 231 229 228 227 229 231 232 232 231 234 241 245 249 257 264 267 271 273 274 277 280 281 279 278 277 277 273 271 274 276 276 273 270 267 266 265 268 272 275 276 277 281 284 285 285 289 292 291 289 289 290 292 293 294 294 295 296 298 300 303 309 315 317 316 315 311 310 314 319 323 325
218 222 223 229 235 235 235 238 240 240 241 241 238 235 232 232 233 233 233 231 230 231 233 237 241 244 248 255 260 260 260 262 266 272 278 281 281 278 277 278 275 271 273 275 275 276 276 272 266 265 270 274 276 276 275 277 281 281 282 287 291 291 288 288 287 287 289 289 288 289 291 292 295 300 305 305 305 308 313 311 307 310 312 313 318
210 218 219 223 230 235 236 236 236 236 236 235 233 232 230 231 232 235 236 233 231 232 235 237 238 240 245 250 255 255 253 255 261 267 271 275 278 276 276 280 280 276 276 275 275 276 276 274 273 276 279 278 277 277 277 277 277 278 279 282 285 286 286 285 284 282 282 282 284 287 288 288 292 296 298 299 300 303 306 305 302 306 307 304 310
210 217 218 216 222 229 233 233 230 226 224 223 222 222 223 225 228 232 235 235 235 237 239 238 236 234 235 239 245 246 248 255 262 267 270 271 274 274 274 278 281 280 278 276 275 276 276 275 277 281 284 285 283 283 283 283 281 280 280 280 281 281 280 280 281 282 282 281 282 284 284 285 289 293 295 296 298 298 300 300 296 298 302 299 302
213 219 220 219 219 223 227 228 225 220 213 210 210 211 212 217 224 229 231 232 234 235 236 238 239 237 236 237 241 242 245 253 261 267 270 271 275 274 271 269 271 273 275 274 276 278 278 278 278 277 281 287 289 287 287 288 287 285 284 282 281 280 278 276 276 277 280 282 285 285 284 285 288 290 292 294 297 299 299 298 293 290 291 291 293
151 172 203 217 219 219 222 224 222 219 215 217 221 218 213 212 219 226 230 233 236 237 238 240 241 239 238 240 242 242 246 252 257 264 269 271 275 275 271 266 263 264 267 270 274 278 280 282 283 282 284 289 291 290 288 289 291 290 289 288 286 285 282 279 277 276 275 274 274 276 279 281 282 286 292 295 296 295 294 293 293 291 289 286 287
90 89 99 135 190 207 214 219 222 220 219 225 233 231 223 221 224 229 232 234 237 240 241 242 242 242 243 244 245 245 247 250 251 257 265 270 274 274 271 267 263 262 265 267 270 274 278 281 283 285 288 290 292 292 290 288 289 290 289 288 287 289 289 287 285 283 280 276 273 274 278 282 283 287 293 296 293 291 288 288 290 290 289 287 287
83 83 84 84 90 117 154 182 199 205 208 213 220 224 224 222 222 223 224 224 228 235 239 241 244 247 246 245 247 249 252 254 255 257 261 266 268 268 268 266 264 263 266 269 272 273 276 278 279 282 286 288 290 291 291 288 287 287 287 285 284 284 286 287 285 281 278 277 274 274 278 281 281 284 289 291 290 291 290 290 290 289 290 290 289
77 79 80 82 86 90 92 92 101 136 168 178 180 185 197 203 203 202 203 207 214 222 229 230 233 239 240 242 247 250 255 259 259 257 257 258 259 259 261 265 266 266 268 272 274 276 277 277 278 280 282 286 289 291 292 290 287 284 284 284 284 281 281 285 289 289 286 281 277 277 279 281 281 282 285 286 286 288 290 290 290 288 286 286 284
73 76 77 78 83 90 95 98 100 111 128 136 138 141 148 157 168 173 172 177 184 189 201 211 215 222 230 239 248 251 257 262 258 252 249 249 250 252 255 260 262 265 269 273 276 278 279 280 280 280 281 284 286 288 290 289 285 282 280 281 283 282 282 285 291 295 295 294 292 290 290 290 290 288 288 287 287 287 284 279 277 279 277 275 281
76 79 80 80 80 84 91 100 104 104 102 105 110 114 114 119 130 140 146 149 152 157 173 186 192 200 215 236 247 249 256 265 262 252 247 245 244 245 249 254 258 261 265 268 271 273 275 276 277 277 277 279 282 284 286 285 281 277 275 277 279 280 283 287 289 291 293 294 295 296 295 294 294 292 290 288 285 283 277 273 273 273 267 268 279
81 84 86 87 84 82 83 88 90 86 79 78 88 97 98 98 98 101 110 119 123 129 137 141 144 155 166 173 205 239 256 268 270 262 254 250 246 245 247 253 259 262 264 266 269 271 272 274 276 277 278 279 281 284 284 281 279 275 271 271 272 273 281 288 289 288 289 290 291 292 292 292 293 293 293 291 288 280 274 273 273 265 257 265 276
87 88 88 88 87 84 83 83 82 81 81 80 76 74 82 90 91 91 96 100 101 106 117 118 114 115 125 127 117 113 2 337 341 321 290 271 260 253 250 253 258 263 267 271 274 276 278 281 285 283 282 282 283 284 282 279 278 277 272 268 268 274 284 290 288 287 288 287 287 286 286 288 290 290 290 291 290 285 280 278 274 263 256 265 272
91 89 87 85 84 83 81 79 78 78 81 85 86 79 80 95 104 105 107 105 98 96 100 101 97 97 103 109 108 100 77 35 359 345 332 307 282 267 255 250 253 258 263 268 272 274 276 282 285 281 282 288 290 288 286 284 281 280 278 276 275 279 285 286 287 288 289 288 288 287 285 285 285 283 281 281 281 279 276 276 274 265 258 264 269
90 87 85 81 78 78 78 76 78 78 76 81 88 89 91 99 106 106 106 106 102 98 96 95 91 89 92 95 95 80 48 23 352 341 347 344 322 292 261 244 249 254 259 266 270 272 275 280 277 275 282 292 294 291 289 287 284 282 282 283 283 283 282 282 283 284 286 286 287 286 285 284 283 281 280 278 277 275 271 269 270 265 261 265 268
86 82 80 77 73 72 72 73 75 76 74 78 84 88 90 93 95 98 100 101 101 97 94 92 88 80 76 78 84 80 61 51 47 32 16 10 351 321 297 267 268 261 278 311 303 291 290 290 282 280 286 292 291 289 288 286 284 285 284 284 284 283 282 283 282 280 280 282 282 281 282 285 286 287 288 287 287 285 280 273 271 269 269 272 274
83 78 73 71 69 67 67 68 69 69 70 74 77 79 80 80 81 85 89 91 91 86 81 83 83 76 70 74 81 85 81 70 61 50 38 23 344 312 301 305 325 343 348 333 320 312 306 302 294 289 289 290 288 287 286 285 284 284 284 284 284 284 285 287 285 280 278 278 277 278 281 284 287 289 291 292 292 290 286 281 279 277 275 276 277
80 77 72 67 65 62 61 61 60 60 60 62 62 62 63 65 66 69 72 73 73 70 66 68 71 71 71 72 76 86 90 76 54 46 41 29 10 352 328 303 303 332 349 333 318 313 308 303 299 294 291 291 290 290 288 286 286 286 287 289 290 289 289 288 286 283 281 280 282 285 288 290 292 293 292 292 290 289 286 283 281 280 279 279 278
77 75 71 65 62 61 59 55 53 52 51 50 51 50 50 52 54 55 56 57 56 56 55 56 59 63 66 67 66 69 69 56 41 36 33 26 18 11 357 333 316 334 350 342 332 323 312 304 300 297 294 293 292 294 296 297 298 302 307 310 308 303 298 296 294 293 292 291 293 294 296 298 299 298 296 294 293 293 291 287 285 285 283 282 282
71 67 65 64 61 59 58 55 51 49 47 45 45 44 43 44 45 45 43 42 41 42 43 44 46 48 51 56 54 46 40 33 23 15 13 11 7 3 0 356 349 345 345 345 342 332 318 311 308 311 315 315 315 320 323 323 324 330 336 335 326 314 307 304 300 296 293 295 299 300 301 302 303 305 306 302 300 300 298 294 292 293 293 290 286
67 60 56 56 56 53 51 49 46 46 45 43 43 42 39 38 42 43 39 34 30 29 30 31 32 30 33 38 36 27 25 21 13 7 3 359 354 352 351 350 349 349 347 345 344 337 330 328 334 342 349 348 345 346 344 340 339 340 340 339 333 328 326 325 322 317 311 308 308 306 305 306 308 311 310 305 302 301 300 294 291 293 296 295 290
68 61 54 50 48 44 42 40 35 34 35 37 41 41 39 41 47 49 45 41 38 32 30 30 25 25 29 29 14 3 4 7 8 5 0 354 346 342 340 335 334 338 338 339 346 348 346 347 355 3 5 2 359 355 348 344 344 342 344 348 346 347 349 346 343 344 343 337 331 326 321 318 317 317 315 312 309 308 307 305 301 300 300 298 293
65 59 53 48 42 36 35 34 30 26 22 22 25 26 26 34 44 50 48 44 39 40 50 53 44 40 44 38 22 12 359 359 4 359 354 350 342 334 328 321 318 319 318 331 353 2 358 2 15 18 14 10 9 3 355 352 348 343 344 346 345 345 350 346 343 345 344 342 342 342 338 331 329 330 329 324 319 315 312 309 307 304 301 297 294
65 56 50 45 35 28 25 23 20 18 15 13 11 7 6 13 26 37 42 41 34 31 40 45 43 45 50 45 43 46 27 1 357 353 351 352 347 337 323 306 296 293 296 335 10 7 3 19 33 28 19 17 15 7 0 358 354 346 342 341 340 342 341 336 337 341 338 334 336 339 336 333 334 335 334 332 330 327 321 315 311 306 301 299 297
67 58 48 39 30 21 14 9 6 2 2 3 1 358 355 353 357 4 11 21 31 37 36 27 22 23 28 32 35 34 18 355 346 346 348 354 359 359 349 319 288 269 249 69 47 18 18 31 34 26 19 16 13 8 2 358 354 348 343 340 338 338 334 329 331 334 331 324 326 328 326 326 328 327 327 329 331 330 328 325 321 317 313 311 308
71 62 48 35 25 15 4 0 358 354 353 351 348 347 347 345 345 346 346 354 10 26 33 30 20 11 14 19 19 13 1 351 346 345 347 355 9 20 22 13 325 277 77 77 72 58 53 52 40 27 19 12 7 4 0 356 352 348 344 340 337 335 331 328 329 328 322 318 319 317 315 319 322 321 322 325 325 323 321 321 321 321 322 322 318
71 64 54 40 21 7 359 354 351 350 348 343 338 337 336 334 334 335 336 342 349 355 2 9 15 16 15 12 6 357 349 344 343 344 345 350 3 17 22 17 314 310 71 93 97 92 75 60 43 28 18 11 5 360 356 353 351 347 344 341 337 335 333 333 334 331 326 322 320 317 316 319 319 319 319 321 320 319 318 317 317 319 319 318 314
62 55 47 36 16 359 352 346 344 346 344 339 335 331 328 326 327 327 331 335 335 335 339 343 349 359 7 7 360 351 344 338 336 337 342 347 350 352 336 290 253 244 185 127 120 107 72 44 38 26 11 2 357 354 351 349 349 347 344 341 339 337 338 338 337 334 332 330 328 327 326 325 324 324 322 319 319 319 318 317 318 318 317 318 317
45 28 18 11 357 346 340 336 335 337 335 332 329 325 322 322 322 323 327 329 328 327 327 328 330 337 348 355 352 348 343 338 332 327 328 330 328 322 305 282 267 260 256 239 212 195 237 300 349 4 0 351 347 346 344 343 343 344 343 341 339 337 338 339 337 335 334 333 331 331 332 330 330 331 328 323 322 322 319 317 316 315 314 316 315
24 4 353 345 338 333 330 327 326 326 326 326 324 322 320 322 322 321 320 321 322 322 322 324 326 328 331 341 346 345 341 339 337 332 325 321 315 295 276 275 276 278 277 274 269 266 263 269 317 342 342 338 338 338 337 337 337 337 335 334 333 332 333 334 334 333 332 330 329 331 331 329 329 330 327 323 321 320 318 316 314 311 310 310 309
11 347 333 327 325 324 322 322 320 318 317 317 317 316 315 317 322 320 314 312 315 316 317 320 324 325 324 331 340 342 340 341 345 345 339 330 320 295 271 268 271 274 275 276 276 275 270 260 269 309 319 328 332 334 334 334 332 330 329 327 324 325 328 329 329 329 328 326 326 327 327 325 324 324 321 318 316 314 314 313 311 309 309 309 307
337 329 325 324 322 316 314 314 313 310 307 305 306 308 307 308 314 313 311 312 314 314 315 315 316 318 319 326 337 342 341 338 337 335 332 329 321 303 286 276 271 270 271 272 270 267 260 245 238 277 307 322 328 331 334 333 329 326 325 323 321 321 324 326 326 326 326 325 324 324 323 322 320 319 317 314 312 311 311 309 308 308 307 308 306
319 322 324 326 322 315 311 308 303 300 298 294 293 294 297 303 308 307 307 311 314 314 315 314 312 314 318 326 337 344 340 328 319 317 317 318 317 311 300 288 279 274 272 269 262 255 250 242 242 280 304 318 325 330 333 330 327 323 321 319 318 317 318 319 320 321 322 321 320 318 317 316 316 315 314 311 309 307 305 304 303 303 302 304 305
320 322 322 322 321 317 313 311 306 305 305 301 296 293 292 296 300 303 310 315 314 314 315 313 311 313 315 317 329 342 340 323 313 311 309 309 312 312 307 299 294 289 282 269 246 235 239 246 267 298 311 320 328 331 330 325 323 323 319 316 316 315 314 314 315 315 316 314 311 309 310 311 311 310 308 307 307 306 303 301 300 300 299 301 303
319 321 320 320 321 321 322 326 329 333 333 325 315 306 305 304 306 312 322 320 313 311 311 308 307 311 313 316 327 340 340 329 322 317 310 305 306 309 309 309 306 299 278 244 226 227 240 261 288 307 319 326 328 328 325 319 316 315 313 312 311 311 311 310 310 310 310 307 305 304 305 305 305 303 301 302 304 305 304 303 301 300 298 297 299
315 316 315 317 319 319 321 329 330 333 341 342 336 330 326 320 313 313 315 313 310 310 309 306 310 319 326 333 341 342 335 329 331 331 326 320 317 318 324 328 329 312 253 235 237 250 273 291 304 315 320 322 323 322 319 314 311 309 305 302 299 299 300 301 303 305 306 305 303 302 302 300 298 296 295 296 297 299 299 300 301 301 299 298 297
306 307 304 305 309 311 317 329 333 333 340 343 341 339 336 326 315 309 307 306 307 307 304 308 320 329 334 337 337 331 323 324 330 335 340 344 346 349 354 355 350 343 332 321 320 322 318 315 317 321 322 323 325 324 318 310 307 305 302 300 297 294 293 294 296 299 301 300 298 297 296 295 294 292 290 290 290 292 291 291 293 295 294 295 295
290 291 283 279 305 318 321 332 333 333 341 343 339 337 336 330 321 316 311 310 311 311 309 313 322 327 327 325 320 315 314 317 322 329 338 345 349 349 349 345 340 339 337 334 330 329 328 326 325 325 326 326 326 323 318 311 303 298 295 292 289 288 290 293 297 299 299 298 296 295 294 292 290 289 288 288 289 290 289 287 290 291 289 288 289
291 284 272 288 320 332 334 339 340 344 347 347 345 341 339 335 332 331 330 328 325 323 322 322 322 321 322 320 316 312 310 307 307 315 324 331 335 338 339 337 335 333 332 331 330 328 328 327 326 325 323 320 316 314 314 312 309 305 301 295 291 290 292 295 300 301 299 297 295 294 293 291 289 288 287 287 290 292 291 290 292 293 290 289 289
42 58 64 17 4 0 355 354 0 2 358 355 352 347 343 343 341 340 339 337 332 325 323 322 321 322 325 324 322 321 317 311 306 308 312 316 321 329 334 335 334 332 330 331 331 329 326 325 324 321 317 314 312 311 310 309 308 307 304 299 296 294 293 297 301 302 299 295 292 290 288 287 287 287 287 286 288 291 292 291 291 290 288 287 286
59 73 71 52 44 35 21 14 13 13 11 9 6 358 352 347 343 339 335 334 331 328 324 322 322 325 328 327 325 326 328 326 321 315 311 310 315 323 331 335 334 331 330 330 332 332 330 325 321 318 317 315 312 309 306 304 304 305 303 299 295 294 297 300 303 302 298 293 290 287 285 283 283 284 285 285 287 288 289 289 289 287 284 283 283
78 79 74 68 61 49 39 33 32 28 24 17 10 4 359 352 345 342 340 337 334 333 330 329 330 331 331 328 324 325 328 330 327 323 319 318 320 325 329 330 329 328 326 325 325 326 326 323 319 319 318 313 311 310 308 304 303 304 303 299 295 296 299 301 300 297 296 294 291 286 282 282 281 281 282 283 285 286 287 286 284 283 282 282 281
91 81 74 69 59 51 49 49 47 42 36 28 18 11 6 359 351 346 344 342 339 337 334 333 333 332 330 328 326 325 324 326 328 329 331 333 335 336 333 329 327 325 324 322 322 322 323 323 323 322 320 318 317 316 313 310 306 302 298 296 296 297 299 298 296 295 296 295 291 284 280 279 279 279 280 282 283 284 285 286 284 283 282 281 280
96 86 78 68 58 53 50 49 52 50 37 31 25 15 5 358 350 347 345 343 338 336 335 333 332 331 329 327 326 325 322 323 327 331 334 338 342 341 334 328 325 323 321 320 319 318 318 319 319 318 317 317 315 312 311 310 306 300 298 299 301 301 300 299 298 297 296 293 290 286 283 280 277 276 278 281 283 284 285 285 283 282 280 280 279